Weather observations for the past three days for
Chico Municipal Airport
Metric (Imperial)
Date Time (pdt) Wind (kph) Vis. (km) Weather Sky Cond. Temperature (ºC) Relative Humidity Wind Chill (°C) Heat Index (°C) Pressure Precipitation (cm)
Air Dwpt 6 hour altimeter (cm) sea level (mb) 1 hr 3 hr 6 hr
Max. Min.
30 18:47 SE 15 16.09 Fair CLR 30 8 25% 28 75.69 0.0
30 17:50 SE 15 16.09 Fair CLR 32 0 13% 30 75.72 0.0
30 15:50 SE 22 16.09 Fair CLR 33 7 20% 31 75.77 0.0
30 14:50 Vrbl 9 16.09 Fair CLR 32 5 18% 30 75.84 0.0
30 13:50 Vrbl 9 16.09 Fair CLR 30 6 22% 28 75.9 0.0
30 12:50 Vrbl 7 16.09 Fair CLR 29 9 29% 28 75.95 0.0
30 10:50 Vrbl 7 16.09 Fair CLR 24 8 36% 25 76.02 0.0
30 09:55 S 7 16.09 Fair CLR 24 9 39% 25 76.02 0.0
30 08:50 S 7 16.09 Fair CLR 20 8 46% 76.05 0.0
30 08:15 Calm 16.09 Fair CLR 19 6 43% 76.05 0.0
30 07:55 Calm 16.09 Fair CLR 18 7 49% 76.05 0.0
30 07:50 SE 6 16.09 Fair CLR 18 7 49% 76.05 0.0
30 07:35 Calm 16.09 Fair CLR 18 4 40% 76.05 0.0
30 07:15 Calm 16.09 Fair CLR 17 4 42% 76.02 0.0
30 06:55 NE 7 16.09 Fair CLR 17 4 42% 76.02 0.0
30 06:35 Calm 16.09 Fair CLR 17 4 42% 76 0.0
30 06:15 Calm 16.09 Fair CLR 17 6 49% 76 0.0
30 05:55 NE 6 16.09 Fair CLR 18 7 49% 76 0.0
30 05:35 E 6 16.09 Fair CLR 18 5 43% 75.97 0.0
30 05:15 E 6 16.09 Fair CLR 18 6 46% 75.97 0.0
30 04:55 E 6 16.09 Fair CLR 18 5 43% 75.97 0.0
30 04:35 Calm 16.09 Fair CLR 19 5 40% 75.97 0.0
30 04:15 E 6 16.09 Fair CLR 19 4 37% 76 0.0
30 03:55 E 7 16.09 Fair CLR 18 3 37% 75.97 0.0
30 03:35 E 7 16.09 Fair CLR 19 3 35% 75.97 0.0
30 03:15 E 9 16.09 Fair CLR 19 2 32% 75.97 0.0
30 02:55 Calm 16.09 Fair CLR 20 3 33% 75.97 0.0
30 02:35 NE 6 16.09 Fair CLR 20 2 30% 75.97 0.0
30 02:15 Calm 16.09 Fair CLR 20 3 33% 75.95 0.0
29 18:50 S 11 16.09 Fair CLR 31 7 22% 29 75.77 0.0
29 17:50 S 11 16.09 Fair CLR 31 8 24% 29 75.77 0.0
29 16:50 S 17 16.09 Fair CLR 32 5 18% 30 75.79 0.0
29 15:50 SE 17 16.09 Fair CLR 31 5 19% 29 75.87 0.0
29 14:50 S 26 16.09 Fair CLR 30 4 19% 28 75.92 0.0
29 12:50 S 22 G 30 16.09 Fair CLR 29 4 20% 27 76.02 0.0
29 11:55 S 11 16.09 Fair CLR 27 7 28% 26 76.07 0.0
29 10:50 Calm 16.09 Fair CLR 25 5 28% 25 76.1 0.0
29 09:55 Calm 16.09 Fair CLR 24 6 31% 25 76.1 0.0
29 09:50 Calm 16.09 Fair CLR 23 7 36% 76.1 0.0
29 08:50 Calm 16.09 Fair CLR 22 7 38% 76.1 0.0
29 08:15 N 6 16.09 Fair CLR 20 7 43% 76.1 0.0
29 07:55 Calm 16.09 Fair CLR 19 5 40% 76.07 0.0
29 07:50 Calm 16.09 Fair CLR 19 5 40% 76.07 0.0
29 07:35 Calm 16.09 Fair CLR 18 5 43% 76.07 0.0
29 07:15 NE 6 16.09 Fair CLR 17 6 49% 76.05 0.0
29 06:55 NW 9 16.09 Fair CLR 15 5 51% 76.05 0.0
29 06:35 Calm 16.09 Fair CLR 15 6 55% 76.02 0.0
29 06:15 NE 6 16.09 Fair CLR 18 7 49% 76 0.0
29 05:55 SE 6 16.09 Fair CLR 17 6 49% 76 0.0
29 05:35 Calm 16.09 Fair CLR 17 6 49% 76 0.0
29 05:15 NE 6 16.09 Fair CLR 18 6 46% 76 0.0
29 04:55 N 6 16.09 Fair CLR 19 6 43% 76.02 0.0
29 04:35 N 9 16.09 Fair CLR 18 6 46% 76.05 0.0
29 04:15 N 9 16.09 Fair CLR 17 7 52% 76.02 0.0
29 03:55 N 11 16.09 Fair CLR 18 7 49% 76 0.0
29 03:35 N 9 16.09 Fair CLR 17 8 56% 76 0.0
29 03:15 NW 7 16.09 Fair CLR 18 8 52% 76 0.0
29 02:55 Calm 16.09 Fair CLR 18 8 52% 75.97 0.0
29 02:35 W 9 16.09 Fair CLR 19 8 49% 75.97 0.0
29 02:15 E 9 16.09 Fair CLR 24 2 24% 25 75.97 0.0
28 18:50 SE 20 16.09 Fair CLR 29 4 20% 27 75.95 0.0
28 17:50 SE 19 16.09 Fair CLR 31 4 18% 29 75.95 0.0
28 15:50 SE 31 16.09 Fair CLR 31 5 19% 29 76 0.0
28 14:50 SE 31 16.09 Fair CLR 30 2 17% 28 76.05 0.0
28 13:50 SE 28 16.09 Fair CLR 32 4 17% 30 76.07 0.0
28 12:50 SE 33 16.09 Fair and Breezy CLR 30 7 24% 28 76.07 0.0
28 11:47 SE 28 16.09 Fair CLR 26 8 32% 26 76.12 0.0
28 10:55 SE 17 16.09 Fair CLR 26 8 32% 26 76.12 0.0
28 09:47 S 15 16.09 Fair CLR 24 8 36% 25 76.05 0.0
28 08:47 S 6 16.09 Fair CLR 24 7 34% 25 76 0.0
28 08:15 S 6 16.09 Fair CLR 24 7 34% 25 76 0.0
28 07:55 S 6 16.09 Fair CLR 24 7 34% 25 76 0.0
28 07:47 S 6 16.09 Fair CLR 24 8 36% 25 75.97 0.0
28 07:35 Calm 16.09 Fair CLR 24 8 36% 25 75.97 0.0
28 07:15 E 6 16.09 Fair CLR 23 8 38% 75.97 0.0
28 06:55 E 7 16.09 Fair CLR 24 8 36% 25 75.95 0.0
28 06:35 E 11 16.09 Fair CLR 22 9 44% 75.95 0.0
28 06:15 E 11 16.09 Fair CLR 22 10 47% 75.95 0.0
28 05:55 E 9 16.09 Fair CLR 22 10 47% 75.92 0.0
28 05:35 E 9 16.09 Fair CLR 22 10 47% 75.92 0.0
28 05:15 Calm 16.09 Fair CLR 23 10 44% 75.92 0.0
28 04:55 Calm 16.09 Fair CLR 23 10 44% 75.92 0.0
28 04:35 Calm 16.09 Fair CLR 23 10 44% 75.92 0.0
28 04:15 N 6 16.09 Fair CLR 23 11 47% 75.92 0.0
28 03:55 NW 6 16.09 Fair CLR 23 11 47% 75.92 0.0
28 03:35 N 7 16.09 Fair CLR 23 11 47% 75.9 0.0
28 03:15 N 11 16.09 Fair CLR 23 11 47% 75.9 0.0
28 02:55 W 6 16.09 Fair CLR 23 12 50% 75.9 0.0
28 02:35 SW 11 16.09 Fair CLR 24 11 44% 25 75.9 0.0
Date Time (pdt) Wind (kph) Vis. (km) Weather Sky Cond. Air Dwpt Max. Min. Relative Humidity Wind Chill (°C) Heat Index (°C) altimeter (cm) sea level (mb) 1 hr 3 hr 6 hr
6 hour
Temperature (ºC) Pressure Precipitation (cm)